Change the Weather History Date:

Monday, January 6, 2014

  Actual Average Record
Temperature  
Mean Temperature -20 °F -  
Max Temperature -14 °F 20 °F 44 °F (2012)
Min Temperature -25 °F 4 °F -25 °F (2014)
Degree Days  
Heating Degree Days 84    
Moisture  
Dew Point -27 °F    
Average Humidity 68    
Maximum Humidity 76    
Minimum Humidity 58    
Precipitation  
Precipitation 0.00 in - - ()
Sea Level Pressure  
Sea Level Pressure 30.24 in    
Wind  
Wind Speed 14 mph (West)    
Max Wind Speed 21 mph    
Max Gust Speed 28 mph    
Visibility 9 miles    
Events      
Averages and records for this station are not official NWS values.
T = Trace of Precipitation, MM = Missing Value Source: NWS Daily Summary

Daily Weather History Graph

Daily Weather History Graph

Search for Another Location

Airport or City:

Trip Planner

Search our weather history database for the weather conditions in past years. The results will help you decide how hot, cold, wet, or windy it might be!

Date:

Astronomy

Jan. 06, 2014 Rise Set
Actual Time 7:49 AM CST 4:48 PM CST
Civil Twilight 7:16 AM CST 5:21 PM CST
Nautical Twilight 6:39 AM CST 5:58 PM CST
Astronomical Twilight 6:04 AM CST 6:33 PM CST
Moon 10:49 AM CST (1/6) 11:39 PM CST (1/6)
Length of Visible Light 10h 05m
Length of Day
8h 58m
Waxing Crescent, 35% of the Moon is Illuminated
Jan 6
Waxing Crescent
Jan 7
First Quarter
Jan 15
Full
Jan 23
Last Quarter
Jan 30
New

Hourly Weather History & Observations

Time (CST) Temp. Windchill Dew Point Humidity Pressure Visibility Wind Dir Wind Speed Gust Speed Precip Events Conditions
12:04 AM -22.0 °F -45.7 °F -31.0 °F 63% 30.28 in 10.0 mi WNW 12.7 mph 21.9 mph N/A   Clear
12:25 AM -22.0 °F -47.5 °F -29.2 °F 69% 30.28 in 10.0 mi WNW 15.0 mph - N/A   Clear
12:44 AM -22.0 °F -46.6 °F -31.0 °F 63% 30.28 in 10.0 mi WNW 13.8 mph - N/A   Clear
1:05 AM -23.8 °F -48.0 °F -31.0 °F 69% 30.28 in 10.0 mi WNW 12.7 mph - N/A   Clear
1:24 AM -23.8 °F -48.0 °F -31.0 °F 69% 30.28 in 10.0 mi WNW 12.7 mph 24.2 mph N/A   Clear
1:45 AM -23.8 °F -49.8 °F -31.0 °F 69% 30.28 in 7.0 mi WNW 15.0 mph 21.9 mph N/A   Clear
2:05 AM -23.8 °F -49.8 °F -31.0 °F 69% 30.28 in 10.0 mi WNW 15.0 mph 19.6 mph N/A   Clear
2:24 AM -23.8 °F -51.5 °F -31.0 °F 69% 30.28 in 7.0 mi WNW 17.3 mph - N/A   Clear
2:45 AM -23.8 °F -50.7 °F -32.8 °F 63% 30.28 in 10.0 mi WNW 16.1 mph 23.0 mph N/A   Clear
3:05 AM -23.8 °F -51.5 °F -32.8 °F 63% 30.28 in 10.0 mi WNW 17.3 mph - N/A   Clear
3:24 AM -23.8 °F -48.0 °F -32.8 °F 63% 30.28 in 10.0 mi WNW 12.7 mph 18.4 mph N/A   Clear
3:45 AM -23.8 °F -48.0 °F -32.8 °F 63% 30.28 in 10.0 mi WNW 12.7 mph - N/A   Clear
4:05 AM -23.8 °F -46.9 °F -32.8 °F 63% 30.28 in 10.0 mi WNW 11.5 mph - N/A   Clear
4:24 AM -25.6 °F -50.2 °F -32.8 °F 69% 30.28 in 10.0 mi WNW 12.7 mph 17.3 mph N/A   Clear
4:45 AM -25.6 °F -50.2 °F -32.8 °F 69% 30.28 in 10.0 mi WNW 12.7 mph - N/A   Clear
5:05 AM -25.6 °F -51.2 °F -32.8 °F 69% 30.28 in 10.0 mi WNW 13.8 mph - N/A   Clear
5:24 AM -25.6 °F -53.0 °F -32.8 °F 69% 30.28 in 10.0 mi WNW 16.1 mph - N/A   Clear
5:45 AM -25.6 °F -52.1 °F -32.8 °F 69% 30.28 in 10.0 mi WNW 15.0 mph - N/A   Clear
6:04 AM -25.6 °F -53.0 °F -32.8 °F 69% 30.28 in 10.0 mi WNW 16.1 mph - N/A   Clear
6:25 AM -23.8 °F -49.8 °F -32.8 °F 63% 30.27 in 7.0 mi WNW 15.0 mph - N/A   Clear
6:45 AM -23.8 °F -48.9 °F -31.0 °F 69% 30.27 in 5.0 mi West 13.8 mph 18.4 mph N/A   Haze
7:04 AM -23.8 °F -48.0 °F -31.0 °F 69% 30.27 in 5.0 mi West 12.7 mph - N/A   Haze
7:25 AM -23.8 °F -49.8 °F -31.0 °F 69% 30.26 in 4.0 mi WNW 15.0 mph - N/A   Haze
7:45 AM -23.8 °F -48.9 °F -31.0 °F 69% 30.26 in 10.0 mi WNW 13.8 mph - N/A   Clear
8:04 AM -23.8 °F -49.8 °F -29.2 °F 76% 30.26 in 5.0 mi WNW 15.0 mph - N/A   Haze
8:25 AM -23.8 °F -50.7 °F -29.2 °F 76% 30.26 in 10.0 mi West 16.1 mph - N/A   Clear
8:45 AM -22.0 °F -46.6 °F -29.2 °F 69% 30.26 in 10.0 mi West 13.8 mph - N/A   Clear
9:04 AM -22.0 °F -47.5 °F -29.2 °F 69% 30.26 in 4.0 mi West 15.0 mph 20.7 mph N/A   Haze
9:25 AM -20.2 °F -46.0 °F -27.4 °F 69% 30.26 in 4.0 mi West 16.1 mph - N/A   Haze
9:44 AM -20.2 °F -46.0 °F -27.4 °F 69% 30.27 in 7.0 mi West 16.1 mph 21.9 mph N/A   Clear
10:05 AM -18.4 °F -44.5 °F -27.4 °F 63% 30.27 in 4.0 mi West 17.3 mph - N/A   Haze
10:25 AM -18.4 °F -43.7 °F -27.4 °F 63% 30.26 in 4.0 mi WNW 16.1 mph - N/A   Haze
10:44 AM -18.4 °F -44.5 °F -25.6 °F 70% 30.26 in 5.0 mi West 17.3 mph 21.9 mph N/A   Haze
11:05 AM -18.4 °F -41.2 °F -25.6 °F 70% 30.25 in 4.0 mi West 12.7 mph - N/A   Haze
11:25 AM -16.6 °F -43.5 °F -25.6 °F 64% 30.24 in 5.0 mi West 19.6 mph - N/A   Haze
11:44 AM -16.6 °F -42.9 °F -25.6 °F 64% 30.23 in 5.0 mi West 18.4 mph 23.0 mph N/A   Haze
12:05 PM -16.6 °F -42.9 °F -25.6 °F 64% 30.22 in 10.0 mi WNW 18.4 mph 26.5 mph N/A   Clear
12:24 PM -16.6 °F -42.9 °F -25.6 °F 64% 30.22 in 7.0 mi West 18.4 mph - N/A   Clear
12:44 PM -16.6 °F -44.1 °F -25.6 °F 64% 30.20 in 10.0 mi West 20.7 mph 27.6 mph N/A   Clear
1:05 PM -14.8 °F -39.8 °F -25.6 °F 58% 30.20 in 10.0 mi West 17.3 mph - N/A   Scattered Clouds
1:24 PM -16.6 °F -42.1 °F -25.6 °F 64% 30.20 in 10.0 mi West 17.3 mph - N/A   Clear
1:45 PM -14.8 °F -39.1 °F -25.6 °F 58% 30.20 in 10.0 mi West 16.1 mph - N/A   Clear
2:05 PM -14.8 °F -39.8 °F -23.8 °F 64% 30.21 in 7.0 mi West 17.3 mph - N/A   Clear
2:24 PM -14.8 °F -39.1 °F -23.8 °F 64% 30.21 in 4.0 mi West 16.1 mph 24.2 mph N/A   Haze
2:45 PM -14.8 °F -39.8 °F -23.8 °F 64% 30.21 in 3.0 mi West 17.3 mph 24.2 mph N/A   Haze
3:04 PM -16.6 °F -42.1 °F -23.8 °F 70% 30.21 in 10.0 mi West 17.3 mph 25.3 mph N/A   Clear
3:25 PM -16.6 °F -42.9 °F -23.8 °F 70% 30.22 in 7.0 mi West 18.4 mph - N/A   Clear
3:44 PM -16.6 °F -40.6 °F -23.8 °F 70% 30.22 in 10.0 mi West 15.0 mph - N/A   Scattered Clouds
4:05 PM -16.6 °F -40.6 °F -23.8 °F 70% 30.22 in 10.0 mi West 15.0 mph 21.9 mph N/A   Scattered Clouds
4:25 PM -16.6 °F -38.9 °F -23.8 °F 70% 30.21 in 10.0 mi West 12.7 mph 19.6 mph N/A   Scattered Clouds
4:44 PM -16.6 °F -41.4 °F -23.8 °F 70% 30.21 in 10.0 mi West 16.1 mph 25.3 mph N/A   Mostly Cloudy
5:05 PM -16.6 °F -42.9 °F -23.8 °F 70% 30.21 in 10.0 mi West 18.4 mph 24.2 mph N/A   Scattered Clouds
5:25 PM -16.6 °F -40.6 °F -23.8 °F 70% 30.21 in 10.0 mi West 15.0 mph 23.0 mph N/A   Clear
5:44 PM -16.6 °F -41.4 °F -23.8 °F 70% 30.21 in 10.0 mi West 16.1 mph 23.0 mph N/A   Clear
6:05 PM -16.6 °F -39.8 °F -23.8 °F 70% 30.22 in 10.0 mi West 13.8 mph 19.6 mph N/A   Clear
6:25 PM -16.6 °F -39.8 °F -23.8 °F 70% 30.21 in 7.0 mi West 13.8 mph 19.6 mph N/A   Scattered Clouds
6:44 PM -16.6 °F -39.8 °F -23.8 °F 70% 30.21 in 10.0 mi West 13.8 mph 19.6 mph N/A   Mostly Cloudy
7:05 PM -16.6 °F -41.4 °F -23.8 °F 70% 30.21 in 10.0 mi West 16.1 mph 23.0 mph N/A   Overcast
7:24 PM -16.6 °F -40.6 °F -23.8 °F 70% 30.21 in 10.0 mi West 15.0 mph - N/A   Mostly Cloudy
7:45 PM -16.6 °F -36.8 °F -23.8 °F 70% 30.21 in 10.0 mi West 10.4 mph - N/A   Scattered Clouds
8:04 PM -16.6 °F -35.7 °F -23.8 °F 70% 30.20 in 10.0 mi West 9.2 mph - N/A   Clear
8:25 PM -16.6 °F -35.7 °F -23.8 °F 70% 30.20 in 10.0 mi West 9.2 mph - N/A   Clear
8:45 PM -16.6 °F -35.7 °F -23.8 °F 70% 30.19 in 10.0 mi West 9.2 mph - N/A   Clear
9:04 PM -16.6 °F -35.7 °F -23.8 °F 70% 30.19 in 10.0 mi West 9.2 mph - N/A   Clear
9:25 PM -16.6 °F -36.8 °F -23.8 °F 70% 30.19 in 10.0 mi West 10.4 mph - N/A   Clear
9:45 PM -18.4 °F -37.9 °F -23.8 °F 76% 30.18 in 10.0 mi West 9.2 mph - N/A   Clear
10:04 PM -18.4 °F -36.6 °F -23.8 °F 76% 30.17 in 10.0 mi West 8.1 mph - N/A   Clear
10:25 PM -16.6 °F -32.9 °F -23.8 °F 70% 30.17 in 10.0 mi West 6.9 mph - N/A   Clear
10:45 PM -18.4 °F -35.1 °F -23.8 °F 76% 30.18 in 10.0 mi WSW 6.9 mph - N/A   Clear
11:04 PM -16.6 °F -34.4 °F -23.8 °F 70% 30.17 in 10.0 mi West 8.1 mph - N/A   Clear
11:25 PM -16.6 °F -34.4 °F -22.0 °F 76% 30.16 in 10.0 mi West 8.1 mph - N/A   Clear
11:44 PM -16.6 °F -35.7 °F -22.0 °F 76% 30.15 in 10.0 mi WSW 9.2 mph - N/A   Clear